Location: Contre
(49.7477°N, 2.0963°E)
Time: 23:30:09
(UTC+00:00)

Envisat - Pass Details

Date: 28 February 2024
Orbit: 762 x 764 km, 98.3° (Epoch: 12 April)

Event Time Altitude Azimuth Distance (km) Brightness Sun altitude
Rises 04:55:00 0° 4° (N) 3,243 6.4 -17.4°
Reaches altitude 10° 04:57:48 10° 349° (N) 2,312 5.4 -16.9°
Maximum altitude 05:01:31 21° 302° (WNW) 1,675 4.3 -16.3°
Enters shadow 05:01:47 21° 298° (WNW) 1,679 4.3 -16.3°
